Marion Regional, IL

11:27 AM CDT on October 22, 2017 (GMT -0500)
Williamson County Regional

Weather History for KMWA - April, 2013

Change the Weather History Date:

Wednesday, April 10, 2013

  Actual Average Record
Temperature  
Mean Temperature 73 °F -  
Max Temperature 80 °F 59 °F 84 °F (2011)
Min Temperature 64 °F 38 °F 22 °F (1982)
Cooling Degree Days 8    
Growing Degree Days 23 (Base 50)    
Moisture  
Dew Point 63 °F    
Average Humidity 71    
Maximum Humidity 94    
Minimum Humidity 54    
Precipitation  
Precipitation 0.26 in - - ()
Sea Level Pressure  
Sea Level Pressure 29.82 in    
Wind  
Wind Speed 13 mph (South)    
Max Wind Speed 21 mph    
Max Gust Speed 31 mph    
Visibility 12 miles    
Events Rain , Thunderstorm    
Averages and records for this station are not official NWS values.
T = Trace of Precipitation, MM = Missing Value Source: NWS Daily Summary

Daily Weather History Graph

Daily Weather History Graph

Search for Another Location

Airport or City:

Trip Planner

Search our weather history database for the weather conditions in past years. The results will help you decide how hot, cold, wet, or windy it might be!

Date:

Astronomy

Apr. 10, 2013 Rise Set
Actual Time 6:27 AM CDT 7:27 PM CDT
Civil Twilight 6:00 AM CDT 7:54 PM CDT
Nautical Twilight 5:29 AM CDT 8:26 PM CDT
Astronomical Twilight 4:56 AM CDT 8:59 PM CDT
Moon 6:24 AM CDT (4/10) 8:01 PM CDT (4/10)
Length of Visible Light 13h 53m
Length of Day
12h 59m
New Moon, 0% of the Moon is Illuminated
Apr 10
New Moon
Apr 18
First Quarter
Apr 25
Full
May 2
Last Quarter
May 9
New

Hourly Weather History & Observations

Time (CDT) Temp. Heat Index Dew Point Humidity Pressure Visibility Wind Dir Wind Speed Gust Speed Precip Events Conditions
12:15 AM 71.6 °F - 62.6 °F 73% 29.87 in 10.0 mi South 13.8 mph 19.6 mph N/A   Clear
12:35 AM 71.6 °F - 62.6 °F 73% 29.87 in 10.0 mi South 13.8 mph 20.7 mph N/A   Clear
12:55 AM 71.6 °F - 62.6 °F 73% 29.87 in 10.0 mi South 15.0 mph 23.0 mph N/A   Clear
1:15 AM 71.6 °F - 62.6 °F 73% 29.87 in 10.0 mi South 15.0 mph - N/A   Clear
1:35 AM 71.6 °F - 62.6 °F 73% 29.87 in 10.0 mi South 12.7 mph - N/A   Clear
1:55 AM 71.6 °F - 62.6 °F 73% 29.85 in 10.0 mi South 15.0 mph 21.9 mph N/A   Clear
2:15 AM 71.6 °F - 62.6 °F 73% 29.85 in 10.0 mi South 12.7 mph - N/A   Clear
2:35 AM 71.6 °F - 62.6 °F 73% 29.85 in 10.0 mi South 11.5 mph - N/A   Clear
2:55 AM 71.6 °F - 62.6 °F 73% 29.85 in 10.0 mi South 15.0 mph 18.4 mph N/A   Clear
3:15 AM 71.6 °F - 62.6 °F 73% 29.85 in 10.0 mi South 13.8 mph 20.7 mph N/A   Clear
3:35 AM 71.6 °F - 62.6 °F 73% 29.85 in 10.0 mi South 12.7 mph 23.0 mph N/A   Clear
3:55 AM 71.6 °F - 62.6 °F 73% 29.86 in 10.0 mi SSW 15.0 mph 19.6 mph N/A   Clear
4:15 AM 71.6 °F - 62.6 °F 73% 29.86 in 10.0 mi SSW 16.1 mph 23.0 mph N/A   Clear
4:35 AM 71.6 °F - 62.6 °F 73% 29.86 in 10.0 mi SSW 18.4 mph 25.3 mph N/A   Scattered Clouds
4:55 AM 71.6 °F - 62.6 °F 73% 29.87 in 10.0 mi SSW 12.7 mph 21.9 mph N/A   Scattered Clouds
5:15 AM 71.6 °F - 64.4 °F 78% 29.87 in 10.0 mi SSW 15.0 mph 24.2 mph N/A   Scattered Clouds
5:35 AM 71.6 °F - 64.4 °F 78% 29.87 in 10.0 mi SSW 13.8 mph 24.2 mph N/A   Mostly Cloudy
5:55 AM 71.6 °F - 64.4 °F 78% 29.87 in 10.0 mi SSW 15.0 mph 21.9 mph N/A   Mostly Cloudy
6:15 AM 71.6 °F - 64.4 °F 78% 29.87 in 10.0 mi SSW 15.0 mph - N/A   Overcast
6:35 AM 71.6 °F - 64.4 °F 78% 29.88 in 10.0 mi SSW 15.0 mph 21.9 mph N/A   Overcast
6:55 AM 73.4 °F - 64.4 °F 73% 29.87 in 20.0 mi SSW 11.5 mph 23.0 mph N/A   Mostly Cloudy
7:55 AM 73.4 °F - 64.4 °F 73% 29.89 in 20.0 mi SSW 11.5 mph 18.4 mph N/A   Mostly Cloudy
8:55 AM 73.4 °F - 66.2 °F 78% 29.89 in 20.0 mi SSW 11.5 mph 23.0 mph N/A   Mostly Cloudy
9:55 AM 75.2 °F - 66.2 °F 73% 29.90 in 20.0 mi SSW 11.5 mph 23.0 mph N/A   Mostly Cloudy
10:55 AM 77.0 °F - 66.2 °F 69% 29.91 in 20.0 mi SSW 13.8 mph 24.2 mph N/A   Mostly Cloudy
11:55 AM 78.8 °F - 66.2 °F 65% 29.90 in 20.0 mi SSW 17.3 mph 27.6 mph N/A   Mostly Cloudy
12:26 PM 78.8 °F - 64.4 °F 61% 29.89 in 5.0 mi South 16.1 mph - N/A Rain , Thunderstorm Light Thunderstorms and Rain
12:54 PM 73.4 °F - 68.0 °F 83% 29.88 in 15.0 mi South 8.1 mph - N/A   Overcast
1:53 PM 78.8 °F - 66.2 °F 65% 29.86 in 15.0 mi SSW 9.2 mph - N/A   Overcast
2:53 PM 80.6 °F 82.7 °F 66.2 °F 61% 29.83 in 15.0 mi South 13.8 mph - N/A   Overcast
3:22 PM 77.0 °F - 66.2 °F 69% 29.81 in 15.0 mi South 8.1 mph - N/A Rain , Thunderstorm Thunderstorms and Rain
3:53 PM 78.8 °F - 66.2 °F 65% 29.79 in 15.0 mi South 11.5 mph - N/A   Overcast
4:53 PM 80.6 °F 82.3 °F 64.4 °F 58% 29.76 in 15.0 mi South 13.8 mph - N/A   Overcast
5:53 PM 80.6 °F 82.3 °F 64.4 °F 58% 29.72 in 15.0 mi South 15.0 mph - N/A   Overcast
6:35 PM 78.8 °F - 62.6 °F 57% 29.70 in 10.0 mi South 15.0 mph 21.9 mph N/A   Scattered Clouds
6:55 PM 78.8 °F - 60.8 °F 54% 29.70 in 10.0 mi South 15.0 mph 20.7 mph N/A   Scattered Clouds
7:15 PM 78.8 °F - 60.8 °F 54% 29.70 in 10.0 mi SSE 11.5 mph - N/A   Scattered Clouds
7:35 PM 77.0 °F - 60.8 °F 57% 29.70 in 10.0 mi South 10.4 mph 16.1 mph N/A   Scattered Clouds
7:55 PM 77.0 °F - 60.8 °F 57% 29.70 in 10.0 mi South 12.7 mph 18.4 mph N/A   Mostly Cloudy
8:15 PM 77.0 °F - 60.8 °F 57% 29.70 in 10.0 mi SSE 9.2 mph - N/A Thunderstorm Scattered Clouds
8:35 PM 77.0 °F - 60.8 °F 57% 29.69 in 10.0 mi South 10.4 mph - N/A   Clear
8:55 PM 77.0 °F - 60.8 °F 57% 29.71 in 10.0 mi South 10.4 mph 17.3 mph N/A   Scattered Clouds
9:15 PM 77.0 °F - 60.8 °F 57% 29.72 in 10.0 mi South 13.8 mph 20.7 mph N/A Rain Light Rain
9:55 PM 71.6 °F - 64.4 °F 78% 29.73 in 10.0 mi South 8.1 mph - 0.02 in Rain Light Rain
10:15 PM 71.6 °F - 62.6 °F 73% 29.72 in 10.0 mi South 9.2 mph - N/A Rain Light Rain
10:35 PM 69.8 °F - 64.4 °F 83% 29.74 in 10.0 mi SSW 10.4 mph - 0.02 in Rain Rain
10:55 PM 69.8 °F - 64.4 °F 83% 29.78 in 5.0 mi SW 20.7 mph 31.1 mph 0.06 in Rain Rain
11:15 PM 68.0 °F - 62.6 °F 83% 29.78 in 7.0 mi WSW 15.0 mph 26.5 mph 0.04 in Rain Rain
11:35 PM 66.2 °F - 62.6 °F 88% 29.77 in 5.0 mi WSW 9.2 mph - 0.11 in Rain Heavy Rain
11:55 PM 64.4 °F - 62.6 °F 94% 29.75 in 7.0 mi WSW 8.1 mph - 0.18 in Rain Rain